EW3029 Weather Reports


Display with metric or nautical units.
time (UTC)temp
F
wind
direction
speed
MPH
gust
MPH
rain 1hr
in
rain 24hr
in
rain mn
in
humidity
%
barometer
mb
20260507021504 57 51 0.0 4.0 0.00 0.00 0.00 55 1019.5
20260507020004 58 32 1.0 4.0 0.00 0.00 0.00 53 1019.4
20260507014503 59 54 0.0 3.0 0.00 0.00 0.00 51 1019.2
20260507013008 60 101 3.0 8.0 0.00 0.00 0.00 49 1018.9
20260507011506 61 55 5.0 12.0 0.00 0.00 0.00 47 1018.7
20260507010002 61 60 4.0 12.0 0.00 0.00 0.00 47 1018.7
20260507004607 62 19 4.0 9.0 0.00 0.00 0.00 46 1018.6
20260507003100 62 46 3.0 11.0 0.00 0.00 0.00 47 1018.6
20260507001600 62 40 5.0 10.0 0.00 0.00 0.00 47 1018.5
20260507000101 63 352 4.0 9.0 0.00 0.00 0.00 47 1018.4
20260506234558 64 10 2.0 9.0 0.00 0.00 0.00 46 1018.3
20260506233111 64 98 5.0 9.0 0.00 0.00 0.00 45 1018.1
20260506231601 64 58 4.0 10.0 0.00 0.00 0.00 45 1018.0
20260506230057 65 27 4.0 9.0 0.00 0.00 0.00 45 1017.8
20260506224556 64 63 2.0 10.0 0.00 0.00 0.00 44 1017.6
20260506223055 65 349 3.0 10.0 0.00 0.00 0.00 46 1017.4
20260506221604 65 60 6.0 11.0 0.00 0.00 0.00 45 1017.3
20260506220054 65 49 2.0 8.0 0.00 0.00 0.00 47 1017.2
20260506214554 64 53 3.0 9.0 0.00 0.00 0.00 47 1017.4
20260506213109 64 4 6.0 13.0 0.00 0.00 0.00 46 1017.6
20260506211548 64 30 5.0 13.0 0.00 0.00 0.00 48 1017.8
20260506210046 63 52 3.0 12.0 0.00 0.00 0.00 50 1017.9
20260506204544 63 53 4.0 12.0 0.00 0.00 0.00 51 1018.1
20260506203043 63 9 5.0 14.0 0.00 0.00 0.00 51 1018.2
20260506201542 63 356 5.0 11.0 0.00 0.00 0.00 51 1018.4
20260506200039 62 39 3.0 14.0 0.00 0.00 0.00 53 1018.4
20260506194537 61 34 4.0 10.0 0.00 0.00 0.00 53 1018.6
20260506193036 61 21 6.0 10.0 0.00 0.00 0.00 53 1018.7
20260506191532 60 66 2.0 9.0 0.00 0.00 0.00 55 1018.9
20260506190032 60 49 6.0 13.0 0.00 0.00 0.00 54 1019.0
20260506184544 60 57 5.0 11.0 0.00 0.00 0.00 54 1019.0
20260506183038 60 53 6.0 13.0 0.00 0.00 0.00 55 1019.2
20260506181539 60 75 2.0 12.0 0.00 0.00 0.00 55 1019.4
20260506180033 60 36 1.0 12.0 0.00 0.00 0.00 55 1019.5
20260506174528 59 63 3.0 11.0 0.00 0.00 0.00 56 1019.5
20260506173026 60 50 5.0 12.0 0.00 0.00 0.00 55 1019.6
20260506171524 59 27 5.0 15.0 0.00 0.00 0.00 56 1019.7
20260506170023 59 5 4.0 13.0 0.00 0.00 0.00 56 1019.6
20260506164520 58 67 6.0 13.0 0.00 0.00 0.00 56 1019.6
20260506163018 58 38 7.0 14.0 0.00 0.00 0.00 56 1019.9
20260506161516 57 60 10.0 16.0 0.00 0.00 0.00 57 1019.9
20260506160011 56 58 5.0 12.0 0.00 0.00 0.00 59 1019.7
20260506154508 55 56 6.0 15.0 0.00 0.00 0.00 61 1019.8
20260506153012 54 84 5.0 17.0 0.00 0.00 0.00 64 1019.5
20260506151502 54 20 6.0 17.0 0.00 0.00 0.00 66 1019.6
20260506144557 52 348 6.0 13.0 0.00 0.00 0.00 73 1019.4
20260506143050 51 52 6.0 14.0 0.00 0.00 0.00 75 1018.9
20260506141548 50 21 4.0 14.0 0.00 0.00 0.00 75 1019.1
20260506140046 50 79 3.0 12.0 0.00 0.00 0.00 77 1019.1
20260506134544 50 344 4.0 13.0 0.00 0.00 0.00 79 1019.1
20260506133047 49 349 6.0 11.0 0.00 0.00 0.00 80 1019.2
20260506131551 49 23 3.0 10.0 0.00 0.00 0.00 81 1019.3
20260506130041 49 46 6.0 12.0 0.00 0.00 0.00 81 1019.0
20260506124539 49 80 6.0 12.0 0.00 0.00 0.00 81 1018.9
20260506123036 49 63 4.0 13.0 0.00 0.00 0.00 81 1018.5
20260506121534 49 72 3.0 15.0 0.00 0.00 0.00 82 1018.2
20260506120038 49 13 4.0 11.0 0.00 0.00 0.00 82 1017.7
20260506114531 48 75 2.0 9.0 0.00 0.00 0.00 82 1017.8
20260506113037 48 46 2.0 8.0 0.00 0.00 0.00 82 1017.5
20260506111528 48 49 2.0 9.0 0.00 0.00 0.00 82 1017.2
20260506110026 48 77 3.0 8.0 0.00 0.00 0.00 81 1017.2
20260506104524 49 54 2.0 8.0 0.00 0.00 0.00 80 1017.4
20260506103025 49 68 1.0 5.0 0.00 0.00 0.00 80 1018.3
20260506101518 49 55 1.0 6.0 0.00 0.00 0.00 79 1017.6
20260506100016 49 36 2.0 6.0 0.00 0.00 0.00 79 1017.7
20260506094514 49 58 3.0 7.0 0.00 0.00 0.00 79 1017.2
20260506093012 49 65 1.0 7.0 0.00 0.00 0.00 78 1016.6
20260506091510 49 40 2.0 6.0 0.00 0.00 0.00 77 1016.5
20260506090008 49 27 4.0 7.0 0.00 0.00 0.00 76 1016.1
20260506084506 49 71 4.0 10.0 0.00 0.00 0.00 75 1016.1
20260506083002 49 6 4.0 8.0 0.00 0.00 0.00 75 1015.9
20260506081602 49 45 2.0 8.0 0.00 0.00 0.00 74 1015.3
20260506080106 49 29 4.0 9.0 0.00 0.00 0.00 74 1015.3
20260506073053 49 29 3.0 8.0 0.00 0.00 0.00 73 1015.0
20260506071559 49 34 4.0 11.0 0.00 0.00 0.00 73 1014.7
20260506061544 50 23 3.0 7.0 0.00 0.00 0.00 72 1014.7
20260506044530 50 68 6.0 13.0 0.00 0.00 0.00 70 1014.3
20260506043027 50 42 4.0 10.0 0.00 0.00 0.00 71 1014.7
20260506041526 50 46 6.0 12.0 0.00 0.00 0.00 71 1014.6
20260506040025 50 87 5.0 15.0 0.00 0.00 0.00 72 1014.5
20260506034525 50 32 7.0 14.0 0.00 0.00 0.00 75 1014.3
20260506033019 49 32 3.0 10.0 0.00 0.00 0.00 79 1014.0
20260506031518 50 43 5.0 16.0 0.00 0.00 0.00 80 1013.2
20260506030033 50 51 6.0 15.0 0.00 0.00 0.00 80 1013.1
20260506024532 50 50 4.0 15.0 0.00 0.00 0.00 81 1013.3
20260506023014 50 303 9.0 19.0 0.00 0.00 0.00 81 1013.4